Find Starlink 30090

NORAD ID: 56293 Int'l Des: 2023-056 Owner: SPXS Country: US Constellation: starlink decayed
LEOCIRCULAR
Vis

Historical Track — Apr 8, 2026

3D地球を読み込み中...

Starlink 30090について

説明を読み込み中...

高度履歴

Loading altitude history...

軌道要素

1 56293U 23056H 26097.54265156 .01437191 14490-2 13212-2 0 9996
2 56293 42.9966 36.1718 0002902 241.3708 118.6883 16.11824915164562
Epoch: Apr 7, 2026 • Age: 792 hours

現在のステータス

Position data unavailable
打ち上げ日 Apr 19, 2023
運用期間 3 years
落下予定日 Apr 8, 2026
タイプ internet

技術仕様

分類 Payload
質量 730.00 kg
乾燥質量 700.00 kg
総質量 730.00 kg
長さ 0.30 m
直径 4.10 m
スパン 29.00 m
形状 Box + pan
製造者 SPXS
バスタイプ Starlink V2M
フェーズステータス Unknown Transfer Status
所有者/国 SPXS/US

Most Searched